DELTA 1 DEB

Satellite information

Favourite Embed

Satellite Type and Status

DEBRISIN ORBIT

Key statistics

Satellite DELTA 1 DEB at a glance.

Uptime

18977

Days in orbit

Revolutions

≈ 12.5

Per day

Orbit

SSO

Sun Synchronous Orbit

Inclination

102.4

Latest

Satellite identification and parameters

Extended collection of information and parameters for DELTA 1 DEB.

Object identification

Identified? True

Debris? True

Object name: DELTA 1 DEB

International designator: 1973-086FE

Object number (NORAD): 7196

Object ID (CCSDS): 7196

Country: UNITED STATES OF AMERICA (US)

Current information (Y/N): Y

RCS size: SMALL

Orbital parameters

Period: 115.471 minutes

Inclination: 102.3986 deg

SMA: 7854.932 km

Apoapsis: 1517.661 km

Periapsis: 1435.933 km

RAAN: 280.8386 deg

Eccentricy: 0.00520231

Argument of periapsis: 312.1611 deg

Mean anomaly: 168.519 deg

Mean motion: 12.47065139 rev/day

Mean motion (dot): 0.00000009 rev/day2

B* drag term: 0.00038947912 1/REarth

Two-line elements (TLE)

Creation date: Oct. 20, 2025, 6:08 p.m.

Reference frame: TEME

Reference center: EARTH

Epoch: Oct. 20, 2025, 12:02 p.m. UTC

TLE line 0: 0 DELTA 1 DEB

TLE line 1: 1 07196U 73086FE 25293.50172337 .00000009 00000-0 38948-3 0 9990

TLE line 2: 2 07196 102.3986 280.8386 0052023 312.1611 168.5190 12.47065139364074

Live tracking on map

Real-time ground track for satellite DELTA 1 DEB.

In-orbit conjunctions

A list of the most updated potential collisions computed for object DELTA 1 DEB.

Target Orbit TCA Probability of collision Miss distance Type
COSMOS 718 LEO 2024-09-01 20:51:44 0.0001450552 69.0 (m) PAYLOAD

Associated space launch

Meteorological satellite using radiometric imaging

DELTA 1 DEB was lifted into orbit during the mission ‘Delta 0300 | NOAA 3’, on board a Delta 0300 space rocket.

The launch took place on Nov. 6, 1973, 5:02 p.m. from Space Launch Complex 2W.

For more information about the launch, click the button.

Launch to space Delta 0300 | NOAA 3
Delta 0300 | NOAA 3

Agency: N/A

Status: Launch Successful

Launch date: Nov. 6, 1973, 5:02 p.m. UTC

Rocket: Delta 0300

Launch pad: Space Launch Complex 2W

Location: Vandenberg SFB, CA, USA

...

Latest news about this satellite

There are no fresh news available about this satellite. Check back as we update our databases every day.


Newsletter sign-up

Weekly statistics, charts and insights to help you stay on top of the space industry.